Starlink 5775

operational
NORAD ID: 56503 Int'l Des: 2023-065 Owner: SPXS Country: US Constellation: starlink
LEOCIRCULAR

关于 Starlink 5775

正在加载描述...

实时位置

正在加载3D地球...

即将过境

高度历史

Altitude vs Time

uPlot chart will show altitude changes over time

两行轨道根数

1 56503U 23065A 26037.00131730 .00000732 00000-0 69280-4 0 9999
2 56503 43.0055 22.9048 0001279 268.4356 91.6340 15.02536749151851
Epoch: Feb 6, 2026 • Age: 28 hours

当前状态

高度 570.2 km
速度 7.58 km/s
星下点 -39.90°S, 109.47°E
发射日期 May 14, 2023
运行时间 2.7 years
类型 internet

技术详情

分类 Payload
质量 305.00 kg
干质量 290.00 kg
总质量 305.00 kg
长度 0.20 m
直径 2.80 m
跨度 9.00 m
形状 Box + pan
制造商 SPXS
平台类型 Starlink
阶段状态 In Orbit
所有者/国家 SPXS/US

大型星座

Loading constellations...